Hulianwang Jishu SW 6-02

operational
NORAD ID: 63429 Int'l Des: 2025-067 Owner: ZXW Country: CN Constellation: xingwang
LEOCIRCULAR

About Hulianwang Jishu SW 6-02

Description loading...

Live Position

Loading 3D Globe...

Upcoming Passes

Altitude History

Altitude vs Time

uPlot chart will show altitude changes over time

Two-Line Element Set

1 63429U 25067B 25315.33047567 .00017749 00000-0 47799-3 0 9992
2 63429 54.9930 281.6981 0011271 124.7586 235.4504 15.37920106 34505
Epoch: Nov 11, 2025 • Age: 25 hours

Current Status

Altitude 477.2 km
Velocity 7.62 km/s
Sub-Earth Point -54.92°S, 0.87°E
Launch Date Apr 1, 2025
Age 0.6 years
Type other

Technical Details

Classification Payload
Mass 300.00 kg
Dry Mass 300.00 kg
Total Mass 300.00 kg
Length 2.50 m
Diameter 0.80 m
Span 2.50 m
Shape Box + 2 Pan
Manufacturer YINNT
Phase Status In Orbit
Owner/State ZXW/CN

Large Constellations

Loading constellations...